Home > Time Zones > World Clock > Weather > U.S.A. > Hilo > Past weeks

Flag for U.S.A. Weather past 2 weeks in Hilo, Hawaii, U.S.A.

Now
68 °F

Rain. Fog.


Feels Like: 68 °F
Forecast: 65 / 78 °F
Wind: 7 mph from Southwest

Location: Hilo International Airport


UV Index: 3 (Moderate)

Visibility: 6 mi


Pressure: 30.09 "Hg

Humidity: 94%

Dew point: 66 °F

Location of HiloLocation

Historic Weather in Hilo

°F

Hilo temperature yesterday

Maximum temperature yesterday: 81 °F (at 11:53 AM)
Minimum temperature yesterday: 66 °F (at 1:00 AM)
Average temperature yesterday: 72 °F

Past Weeks' High & Low Weather Summary

 TemperatureHumidityPressure
High81 °F (Apr 3, 11:53 AM)100% (Apr 2, 5:53 AM)30.18 "Hg (Apr 2, 5:53 AM)
Low64 °F (Apr 10, 5:53 AM)50% (Apr 9, 12:53 PM)29.94 "Hg (Apr 5, 2:53 PM)
Average72 °F81%30.07 "Hg
* Reported Apr 2 1:53 AM — Apr 17 1:53 AM, Hilo, Weather by CustomWeather, © 2014

Note: Actual official high and low records may vary slightly from our data, if they occured in-between our weather recording intervals... More about our weather records

Advertising

Historic Weather Conditions — Data for Previous 24 hours

 ConditionsComfort  
Time TempWeatherWind HumidityBarometerVisibility
1:53 AM
Apr 17
69 °FLight rain. Overcast.3 mph93%30.09 "Hg10 mi
1:08 AM70 °FLight rain. Mostly cloudy.No wind83%30.11 "Hg10 mi
12:53 AM69 °FMostly cloudy.No wind87%30.11 "Hg10 mi
11:53 PM
Apr 16
69 °FPassing clouds.5 mph84%30.12 "Hg10 mi
10:53 PM69 °FPassing clouds.8 mph93%30.13 "Hg10 mi
10:33 PM70 °FPartly cloudy.6 mph88%30.14 "Hg10 mi
9:53 PM70 °FPassing clouds.7 mph97%30.13 "Hg10 mi
8:53 PM73 °FMostly cloudy.8 mph84%30.11 "Hg10 mi
7:53 PM75 °FPartly cloudy.5 mph79%30.08 "Hg10 mi
6:53 PM75 °FPartly cloudy.5 mph79%30.07 "Hg10 mi
5:53 PM77 °FSunny.6 mph71%30.05 "Hg10 mi
4:53 PM79 °FScattered clouds.7 mph69%30.03 "Hg10 mi
3:53 PM80 °FScattered clouds.9 mph67%30.03 "Hg10 mi
2:53 PM81 °FScattered clouds.9 mph67%30.05 "Hg10 mi
1:53 PM75 °FLight rain. Partly sunny.5 mph74%30.07 "Hg10 mi
12:53 PM76 °FLight rain. Broken clouds.9 mph85%30.10 "Hg10 mi
11:53 AM81 °FScattered clouds.10 mph65%30.10 "Hg10 mi
10:53 AM79 °FScattered clouds.9 mph67%30.11 "Hg10 mi
9:53 AM77 °FScattered clouds.8 mph71%30.11 "Hg10 mi
8:53 AM74 °FBroken clouds.7 mph82%30.11 "Hg10 mi
8:19 AM72 °FBroken clouds.7 mph88%30.12 "Hg10 mi
7:53 AM71 °FMore clouds than sun.8 mph90%30.11 "Hg10 mi
6:53 AM68 °FMostly cloudy.5 mph93%30.09 "Hg10 mi
5:53 AM66 °FPassing clouds.7 mph100%30.06 "Hg10 mi
4:53 AM66 °FLight rain. Overcast.8 mph100%30.04 "Hg10 mi
4:38 AM66 °FHeavy rain. Fog.3 mph100%30.06 "Hg3 mi
4:33 AM66 °FHeavy rain. Fog.3 mph100%30.06 "Hg2 mi
3:53 AM66 °FLight rain. Mostly cloudy.8 mph100%30.04 "Hg9 mi
2:53 AM67 °FLight rain. Mostly cloudy.No wind97%30.06 "Hg10 mi
Weather by CustomWeather, © 2014

See weather overview